﻿測定場所 (Monitoring sites),日付 (Measurement date),時間 (Measurement time),線量率 最大値 (max) μGy/h,線量率 最小値 (min) μGy/h,線量率 平均値 (average) μGy/h,
足立 (Adachi),2014-08-31,23:01～24:00,0.0448,0.0391,0.0419,
足立 (Adachi),2014-08-31,22:01～23:00,0.0446,0.0386,0.0419,
足立 (Adachi),2014-08-31,21:01～22:00,0.0459,0.0377,0.0413,
足立 (Adachi),2014-08-31,20:01～21:00,0.0449,0.0396,0.0418,
足立 (Adachi),2014-08-31,19:01～20:00,0.0448,0.0382,0.0421,
足立 (Adachi),2014-08-31,18:01～19:00,0.0452,0.0384,0.0415,
足立 (Adachi),2014-08-31,17:01～18:00,0.0439,0.0391,0.0415,
足立 (Adachi),2014-08-31,16:01～17:00,0.0456,0.0389,0.0421,
足立 (Adachi),2014-08-31,15:01～16:00,0.0449,0.0378,0.0418,
足立 (Adachi),2014-08-31,14:01～15:00,0.0448,0.0386,0.0416,
足立 (Adachi),2014-08-31,13:01～14:00,0.0455,0.0389,0.0417,
足立 (Adachi),2014-08-31,12:01～13:00,0.0450,0.0392,0.0418,
足立 (Adachi),2014-08-31,11:01～12:00,0.0441,0.0394,0.0422,
足立 (Adachi),2014-08-31,10:01～11:00,0.0452,0.0394,0.0420,
足立 (Adachi),2014-08-31,09:01～10:00,0.0448,0.0385,0.0420,
足立 (Adachi),2014-08-31,08:01～09:00,0.0462,0.0396,0.0420,
足立 (Adachi),2014-08-31,07:01～08:00,0.0453,0.0394,0.0424,
足立 (Adachi),2014-08-31,06:01～07:00,0.0444,0.0377,0.0415,
足立 (Adachi),2014-08-31,05:01～06:00,0.0447,0.0381,0.0417,
足立 (Adachi),2014-08-31,04:01～05:00,0.0448,0.0379,0.0420,
足立 (Adachi),2014-08-31,03:01～04:00,0.0449,0.0382,0.0421,
足立 (Adachi),2014-08-31,02:01～03:00,0.0448,0.0380,0.0416,
足立 (Adachi),2014-08-31,01:01～02:00,0.0445,0.0386,0.0413,
足立 (Adachi),2014-08-31,00:01～01:00,0.0433,0.0373,0.0404,
足立 (Adachi),2014-08-30,23:01～24:00,0.0432,0.0380,0.0405,
足立 (Adachi),2014-08-30,22:01～23:00,0.0437,0.0379,0.0406,
足立 (Adachi),2014-08-30,21:01～22:00,0.0443,0.0391,0.0415,
足立 (Adachi),2014-08-30,20:01～21:00,0.0443,0.0386,0.0412,
足立 (Adachi),2014-08-30,19:01～20:00,0.0440,0.0381,0.0413,
足立 (Adachi),2014-08-30,18:01～19:00,0.0439,0.0382,0.0414,
足立 (Adachi),2014-08-30,17:01～18:00,0.0447,0.0380,0.0412,
足立 (Adachi),2014-08-30,16:01～17:00,0.0448,0.0374,0.0409,
足立 (Adachi),2014-08-30,15:01～16:00,0.0464,0.0388,0.0415,
足立 (Adachi),2014-08-30,14:01～15:00,0.0457,0.0386,0.0412,
足立 (Adachi),2014-08-30,13:01～14:00,0.0436,0.0379,0.0413,
足立 (Adachi),2014-08-30,12:01～13:00,0.0437,0.0379,0.0410,
足立 (Adachi),2014-08-30,11:01～12:00,0.0443,0.0388,0.0409,
足立 (Adachi),2014-08-30,10:01～11:00,0.0436,0.0382,0.0410,
足立 (Adachi),2014-08-30,09:01～10:00,0.0434,0.0375,0.0409,
足立 (Adachi),2014-08-30,08:01～09:00,0.0449,0.0396,0.0423,
足立 (Adachi),2014-08-30,07:01～08:00,0.0503,0.0425,0.0459,
足立 (Adachi),2014-08-30,06:01～07:00,0.0542,0.0457,0.0494,
足立 (Adachi),2014-08-30,05:01～06:00,0.0534,0.0461,0.0501,
足立 (Adachi),2014-08-30,04:01～05:00,0.0554,0.0468,0.0510,
足立 (Adachi),2014-08-30,03:01～04:00,0.0549,0.0488,0.0519,
足立 (Adachi),2014-08-30,02:01～03:00,0.0562,0.0498,0.0529,
足立 (Adachi),2014-08-30,01:01～02:00,0.0549,0.0429,0.0485,
足立 (Adachi),2014-08-30,00:01～01:00,0.0453,0.0399,0.0424,
足立 (Adachi),2014-08-29,23:01～24:00,0.0472,0.0394,0.0434,
足立 (Adachi),2014-08-29,22:01～23:00,0.0456,0.0414,0.0435,
足立 (Adachi),2014-08-29,21:01～22:00,0.0448,0.0389,0.0420,
足立 (Adachi),2014-08-29,20:01～21:00,0.0446,0.0395,0.0422,
足立 (Adachi),2014-08-29,19:01～20:00,0.0453,0.0373,0.0415,
足立 (Adachi),2014-08-29,18:01～19:00,0.0447,0.0379,0.0412,
足立 (Adachi),2014-08-29,17:01～18:00,0.0457,0.0395,0.0419,
足立 (Adachi),2014-08-29,16:01～17:00,0.0440,0.0386,0.0417,
足立 (Adachi),2014-08-29,15:01～16:00,0.0446,0.0382,0.0414,
足立 (Adachi),2014-08-29,14:01～15:00,0.0453,0.0389,0.0415,
足立 (Adachi),2014-08-29,13:01～14:00,0.0450,0.0391,0.0417,
足立 (Adachi),2014-08-29,12:01～13:00,0.0437,0.0376,0.0412,
足立 (Adachi),2014-08-29,11:01～12:00,0.0438,0.0375,0.0413,
足立 (Adachi),2014-08-29,10:01～11:00,0.0442,0.0392,0.0414,
足立 (Adachi),2014-08-29,09:01～10:00,0.0453,0.0385,0.0415,
足立 (Adachi),2014-08-29,08:01～09:00,0.0445,0.0396,0.0420,
足立 (Adachi),2014-08-29,07:01～08:00,0.0460,0.0403,0.0428,
足立 (Adachi),2014-08-29,06:01～07:00,0.0475,0.0402,0.0442,
足立 (Adachi),2014-08-29,05:01～06:00,0.0456,0.0388,0.0422,
足立 (Adachi),2014-08-29,04:01～05:00,0.0445,0.0385,0.0415,
足立 (Adachi),2014-08-29,03:01～04:00,0.0445,0.0395,0.0419,
足立 (Adachi),2014-08-29,02:01～03:00,0.0450,0.0369,0.0414,
足立 (Adachi),2014-08-29,01:01～02:00,0.0437,0.0369,0.0405,
足立 (Adachi),2014-08-29,00:01～01:00,0.0448,0.0377,0.0414,
足立 (Adachi),2014-08-28,23:01～24:00,0.0463,0.0399,0.0429,
足立 (Adachi),2014-08-28,22:01～23:00,0.0473,0.0400,0.0443,
足立 (Adachi),2014-08-28,21:01～22:00,0.0487,0.0402,0.0439,
足立 (Adachi),2014-08-28,20:01～21:00,0.0479,0.0411,0.0442,
足立 (Adachi),2014-08-28,19:01～20:00,0.0484,0.0401,0.0437,
足立 (Adachi),2014-08-28,18:01～19:00,0.0489,0.0417,0.0449,
足立 (Adachi),2014-08-28,17:01～18:00,0.0445,0.0384,0.0417,
足立 (Adachi),2014-08-28,16:01～17:00,0.0461,0.0390,0.0420,
足立 (Adachi),2014-08-28,15:01～16:00,0.0457,0.0387,0.0424,
足立 (Adachi),2014-08-28,14:01～15:00,0.0442,0.0400,0.0419,
足立 (Adachi),2014-08-28,13:01～14:00,0.0463,0.0399,0.0431,
足立 (Adachi),2014-08-28,12:01～13:00,0.0488,0.0406,0.0437,
足立 (Adachi),2014-08-28,11:01～12:00,0.0459,0.0397,0.0428,
足立 (Adachi),2014-08-28,10:01～11:00,0.0460,0.0393,0.0426,
足立 (Adachi),2014-08-28,09:01～10:00,0.0453,0.0389,0.0426,
足立 (Adachi),2014-08-28,08:01～09:00,0.0454,0.0394,0.0420,
足立 (Adachi),2014-08-28,07:01～08:00,0.0447,0.0373,0.0411,
足立 (Adachi),2014-08-28,06:01～07:00,0.0439,0.0381,0.0408,
足立 (Adachi),2014-08-28,05:01～06:00,0.0452,0.0390,0.0429,
足立 (Adachi),2014-08-28,04:01～05:00,0.0464,0.0394,0.0430,
足立 (Adachi),2014-08-28,03:01～04:00,0.0477,0.0406,0.0443,
足立 (Adachi),2014-08-28,02:01～03:00,0.0506,0.0427,0.0465,
足立 (Adachi),2014-08-28,01:01～02:00,0.0497,0.0424,0.0464,
足立 (Adachi),2014-08-28,00:01～01:00,0.0471,0.0416,0.0444,
足立 (Adachi),2014-08-27,23:01～24:00,0.0480,0.0416,0.0444,
足立 (Adachi),2014-08-27,22:01～23:00,0.0461,0.0408,0.0439,
足立 (Adachi),2014-08-27,21:01～22:00,0.0477,0.0412,0.0445,
足立 (Adachi),2014-08-27,20:01～21:00,0.0496,0.0426,0.0457,
足立 (Adachi),2014-08-27,19:01～20:00,0.0476,0.0412,0.0443,
足立 (Adachi),2014-08-27,18:01～19:00,0.0468,0.0407,0.0441,
足立 (Adachi),2014-08-27,17:01～18:00,0.0443,0.0377,0.0422,
足立 (Adachi),2014-08-27,16:01～17:00,0.0454,0.0395,0.0423,
足立 (Adachi),2014-08-27,15:01～16:00,0.0456,0.0385,0.0427,
足立 (Adachi),2014-08-27,14:01～15:00,0.0456,0.0400,0.0427,
足立 (Adachi),2014-08-27,13:01～14:00,0.0476,0.0403,0.0431,
足立 (Adachi),2014-08-27,12:01～13:00,0.0466,0.0404,0.0435,
足立 (Adachi),2014-08-27,11:01～12:00,0.0484,0.0416,0.0443,
足立 (Adachi),2014-08-27,10:01～11:00,0.0466,0.0392,0.0432,
足立 (Adachi),2014-08-27,09:01～10:00,0.0448,0.0402,0.0427,
足立 (Adachi),2014-08-27,08:01～09:00,0.0469,0.0402,0.0437,
足立 (Adachi),2014-08-27,07:01～08:00,0.0490,0.0416,0.0456,
足立 (Adachi),2014-08-27,06:01～07:00,0.0543,0.0469,0.0501,
足立 (Adachi),2014-08-27,05:01～06:00,0.0563,0.0444,0.0508,
足立 (Adachi),2014-08-27,04:01～05:00,0.0486,0.0409,0.0439,
足立 (Adachi),2014-08-27,03:01～04:00,0.0470,0.0405,0.0429,
足立 (Adachi),2014-08-27,02:01～03:00,0.0459,0.0399,0.0431,
足立 (Adachi),2014-08-27,01:01～02:00,0.0475,0.0405,0.0435,
足立 (Adachi),2014-08-27,00:01～01:00,0.0466,0.0401,0.0435,
足立 (Adachi),2014-08-26,23:01～24:00,0.0467,0.0405,0.0434,
足立 (Adachi),2014-08-26,22:01～23:00,0.0472,0.0410,0.0437,
足立 (Adachi),2014-08-26,21:01～22:00,0.0481,0.0409,0.0435,
足立 (Adachi),2014-08-26,20:01～21:00,0.0473,0.0400,0.0436,
足立 (Adachi),2014-08-26,19:01～20:00,0.0472,0.0412,0.0443,
足立 (Adachi),2014-08-26,18:01～19:00,0.0493,0.0411,0.0446,
足立 (Adachi),2014-08-26,17:01～18:00,0.0526,0.0422,0.0474,
足立 (Adachi),2014-08-26,16:01～17:00,0.0546,0.0478,0.0511,
足立 (Adachi),2014-08-26,15:01～16:00,0.0609,0.0424,0.0543,
足立 (Adachi),2014-08-26,14:01～15:00,0.0480,0.0406,0.0452,
足立 (Adachi),2014-08-26,13:01～14:00,0.0485,0.0427,0.0458,
足立 (Adachi),2014-08-26,12:01～13:00,0.0507,0.0441,0.0474,
足立 (Adachi),2014-08-26,11:01～12:00,0.0492,0.0426,0.0455,
足立 (Adachi),2014-08-26,10:01～11:00,0.0488,0.0414,0.0451,
足立 (Adachi),2014-08-26,09:01～10:00,0.0486,0.0418,0.0449,
足立 (Adachi),2014-08-26,08:01～09:00,0.0470,0.0412,0.0445,
足立 (Adachi),2014-08-26,07:01～08:00,0.0487,0.0418,0.0456,
足立 (Adachi),2014-08-26,06:01～07:00,0.0496,0.0441,0.0473,
足立 (Adachi),2014-08-26,05:01～06:00,0.0482,0.0414,0.0449,
足立 (Adachi),2014-08-26,04:01～05:00,0.0480,0.0415,0.0446,
足立 (Adachi),2014-08-26,03:01～04:00,0.0486,0.0414,0.0454,
足立 (Adachi),2014-08-26,02:01～03:00,0.0486,0.0418,0.0453,
足立 (Adachi),2014-08-26,01:01～02:00,0.0487,0.0412,0.0453,
足立 (Adachi),2014-08-26,00:01～01:00,0.0502,0.0420,0.0459,
足立 (Adachi),2014-08-25,23:01～24:00,0.0487,0.0432,0.0457,
足立 (Adachi),2014-08-25,22:01～23:00,0.0488,0.0420,0.0454,
足立 (Adachi),2014-08-25,21:01～22:00,0.0493,0.0417,0.0454,
足立 (Adachi),2014-08-25,20:01～21:00,0.0486,0.0429,0.0459,
足立 (Adachi),2014-08-25,19:01～20:00,0.0500,0.0442,0.0467,
足立 (Adachi),2014-08-25,18:01～19:00,0.0494,0.0402,0.0454,
足立 (Adachi),2014-08-25,17:01～18:00,0.0478,0.0416,0.0450,
足立 (Adachi),2014-08-25,16:01～17:00,0.0478,0.0416,0.0448,
足立 (Adachi),2014-08-25,15:01～16:00,0.0477,0.0415,0.0447,
足立 (Adachi),2014-08-25,14:01～15:00,0.0488,0.0409,0.0447,
足立 (Adachi),2014-08-25,13:01～14:00,0.0497,0.0424,0.0452,
足立 (Adachi),2014-08-25,12:01～13:00,0.0492,0.0437,0.0464,
足立 (Adachi),2014-08-25,11:01～12:00,0.0516,0.0439,0.0481,
足立 (Adachi),2014-08-25,10:01～11:00,0.0507,0.0415,0.0465,
足立 (Adachi),2014-08-25,09:01～10:00,0.0482,0.0413,0.0452,
足立 (Adachi),2014-08-25,08:01～09:00,0.0484,0.0428,0.0456,
足立 (Adachi),2014-08-25,07:01～08:00,0.0482,0.0422,0.0452,
足立 (Adachi),2014-08-25,06:01～07:00,0.0497,0.0423,0.0458,
足立 (Adachi),2014-08-25,05:01～06:00,0.0572,0.0435,0.0472,
足立 (Adachi),2014-08-25,04:01～05:00,0.0492,0.0430,0.0457,
足立 (Adachi),2014-08-25,03:01～04:00,0.0486,0.0417,0.0457,
足立 (Adachi),2014-08-25,02:01～03:00,0.0491,0.0423,0.0461,
足立 (Adachi),2014-08-25,01:01～02:00,0.0506,0.0438,0.0464,
足立 (Adachi),2014-08-25,00:01～01:00,0.0492,0.0418,0.0455,
